#timestamp,LO_Frequency,Hit 
1501750815.8,286047003.2,N
1501750835.7,286047000.2,N
1501750855.5,286047001.0,N
1501750875.3,286046998.7,N
1501750895.2,286046998.5,N
1501750915.9,286046998.4,N
1501750935.7,286046999.5,N
1501750955.5,286046999.9,N
1501750975.4,286047002.1,N
1501750995.2,286047001.7,N
1501751015.0,286047001.8,N
1501751015.9,286047001.8,N
1501751035.8,286047005.8,N
1501751055.6,286047001.3,N
1501751075.4,286047001.9,N
1501751095.3,286047000.9,N
1501751115.1,286047002.5,N
1501751116.0,286047002.5,N
1501751135.8,286047002.7,N
1501751155.7,286046999.8,N
1501751175.5,286047000.9,N
1501751195.3,286047001.0,N
1501751215.2,286047000.5,N
1501751235.9,286047000.7,N
1501751255.7,286046999.4,N
1501751275.6,286046999.5,N
1501751295.4,286046999.0,N
1501751315.2,286046999.0,N
1501751335.1,286046997.0,N
1501751336.0,286046997.0,N
1501751355.8,286046999.5,N
1501751375.6,286046999.6,N
1501751395.5,286046999.1,N
1501751415.3,286046997.5,N
1501751435.1,286046998.9,N
1501751455.9,286046999.3,N
1501751475.7,286046997.2,N
1501751495.5,286046998.0,N
1501751515.3,286046997.0,N
1501751535.2,286046997.5,N
1501751555.0,286046999.2,N
1501751555.9,286046999.2,N
1501751575.7,286046999.2,N
1501751595.6,286046998.7,N
1501751615.4,286046997.0,N
1501751635.2,286046996.6,N
1501751655.1,286046999.3,N
1501751656.0,286046999.3,N
1501751675.8,286046998.3,N
1501751695.6,286046996.8,N
1501751715.5,286046997.1,N
1501751735.3,286046996.1,P
1501751755.1,286046995.5,P
1501751775.9,286046996.4,N
1501751795.7,286046996.0,P
1501751815.6,286046999.1,N
1501751835.4,286046997.7,N
1501751855.2,286046995.4,P
1501751875.1,286047000.6,N
1501751876.0,286047000.6,N
1501751895.8,286047002.4,N
1501751915.6,286047000.3,N
1501751935.5,286046999.9,N
1501751955.3,286047002.0,N
1501751975.5,286047004.4,N
1501751995.4,286047002.3,N
1501752015.2,286047004.3,N
1501752035.0,286047004.3,N
1501752035.9,286047004.3,N
1501752055.8,286047001.8,N
1501752075.6,286047001.5,N
1501752095.4,286047003.6,N
1501752115.3,286047001.4,N
1501752135.1,286047001.9,N
1501752155.8,286047000.2,N
1501752175.7,286047000.6,N
1501752195.5,286047000.4,N
1501752215.3,286046999.9,N
1501752235.2,286047002.7,N
1501752255.9,286046998.9,N
1501752275.7,286046998.1,N
1501752295.6,286047000.3,N
1501752315.4,286046998.1,N
1501752335.2,286047002.1,N
1501752355.0,286047001.8,N
1501752355.9,286047001.8,N
1501752375.8,286046999.7,N
1501752395.6,286046998.6,N
1501752415.4,286046998.2,N
1501752435.3,286046998.9,N
1501752455.1,286046996.8,N
1501752475.8,286046996.5,N
1501752495.7,286046995.0,N
1501752515.5,286046997.3,N
1501752535.3,286046996.8,N
1501752555.2,286046998.8,N
1501752575.9,286046996.9,N
1501752595.7,286046999.0,N
1501752615.6,286046999.6,N
1501752635.4,286046997.7,N
1501752655.2,286046999.6,N
1501752675.1,286046997.5,N
1501752676.0,286046997.5,N
1501752695.8,286046997.9,N
1501752715.7,286046995.7,N
1501752735.5,286046995.9,N
1501752755.3,286046995.7,N
1501752775.2,286046995.6,N
1501752795.9,286046995.8,N
1501752815.7,286046997.4,N
1501752835.6,286047000.6,N
1501752855.4,286047000.0,N
1501752875.2,286046998.5,N
1501752895.0,286046997.0,N
1501752896.0,286046997.0,N
1501752915.8,286046998.4,N
1501752935.6,286046996.2,N
1501752955.4,286046999.6,N
1501752975.3,286046998.3,N
1501752995.1,286046999.9,N
1501753015.8,286047001.0,N
1501753035.7,286046999.6,N
1501753055.5,286046999.4,N
1501753075.3,286046996.3,N
1501753095.2,286046991.7,P
1501753115.0,286046995.0,N
1501753115.9,286046995.0,N
1501753135.7,286046997.9,N
1501753155.6,286046995.4,N
1501753175.4,286046998.0,N
1501753195.2,286046996.5,N
1501753215.1,286047001.1,N
1501753216.0,286047001.1,N
1501753235.8,286047001.5,N
1501753255.6,286047003.5,N
1501753275.5,286047001.3,N
1501753295.3,286047002.3,N
1501753315.1,286047003.4,N
1501753335.9,286047002.0,N
1501753355.7,286047000.3,N
1501753375.5,286046999.0,N
1501753395.3,286046997.1,N
1501753415.2,286046999.1,N
1501753435.0,286046995.2,N
1501753435.9,286046995.2,N
1501753455.7,286046993.4,N
1501753475.6,286046995.1,N
1501753495.4,286046999.2,N
1501753515.2,286047000.4,N
1501753535.1,286047002.5,N
1501753536.0,286047002.5,N
1501753555.8,286047003.8,N
1501753575.6,286047006.0,N
1501753595.5,286047007.6,N
1501753615.3,286047004.7,N
1501753635.1,286047001.9,N
1501753655.9,286047002.0,N
1501753675.7,286046998.4,N
1501753695.5,286046998.5,N
1501753715.4,286047000.3,N
1501753735.2,286047001.0,N
1501753755.0,286047000.2,N
1501753755.9,286047000.2,N
1501753775.8,286046998.6,N
1501753795.6,286046995.0,N
1501753815.4,286046996.5,N
1501753835.2,286046999.5,N
1501753855.1,286046997.2,N
1501753856.0,286046997.2,N
1501753875.8,286046996.3,N
1501753895.6,286046996.0,N
1501753915.5,286046993.7,N
1501753935.3,286046994.7,N
1501753955.1,286046990.1,N
1501753975.9,286046993.2,N
1501753995.7,286046994.4,N
1501754015.5,286046992.2,N
1501754035.4,286046994.5,N
1501754055.2,286046992.4,N
1501754075.0,286046992.1,N
1501754075.9,286046992.1,N
1501754095.8,286046992.9,N
1501754115.6,286046991.5,N
1501754135.4,286046992.3,N
1501754155.3,286046992.2,N
1501754175.1,286046992.2,N
1501754176.0,286046992.2,N
1501754195.8,286046993.5,N
1501754215.7,286046993.8,N
1501754235.5,286046994.2,N
1501754255.3,286046994.0,N
1501754275.1,286046994.6,N
1501754295.9,286046992.7,P
1501754315.7,286046996.5,P
1501754335.6,286046999.6,N
1501754355.4,286046998.9,N
1501754375.2,286047000.2,N
1501754395.0,286047000.1,N
1501754396.0,286047000.1,N
